Time,TemperatureF,DewpointF,PressureIn,WindDirection,WindDirectionDegrees,WindSpeedMPH,WindSpeedGustMPH,Humidity,HourlyPrecipIn,Conditions,Clouds,dailyrainin,SoftwareType,DateUTC
2013-01-22 00:01:00,39.1,33.5,30.13,NNW,342,0.0,0.0,80,0.00,CLR,,0.00,WeatherDisplay:10.37,2013-01-22 08:01:00,
2013-01-22 00:06:00,39.2,33.5,30.13,NNW,342,0.0,0.0,80,0.00,CLR,,0.00,WeatherDisplay:10.37,2013-01-22 08:06:00,
2013-01-22 00:11:00,38.7,33.1,30.13,North,358,0.0,0.0,80,0.00,CLR,,0.00,WeatherDisplay:10.37,2013-01-22 08:11:00,
2013-01-22 00:17:00,38.1,33.1,30.13,ENE,63,0.0,0.0,82,0.00,CLR,,0.00,WeatherDisplay:10.37,2013-01-22 08:17:00,
2013-01-22 00:22:00,37.8,32.8,30.13,ENE,64,0.0,0.0,82,0.00,CLR,,0.00,WeatherDisplay:10.37,2013-01-22 08:22:00,
2013-01-22 00:27:00,37.5,33.1,30.13,ENE,63,0.0,0.0,84,0.00,CLR,,0.00,WeatherDisplay:10.37,2013-01-22 08:27:00,
2013-01-22 00:32:00,37.7,33.0,30.13,ENE,64,0.0,0.0,83,0.00,CLR,,0.00,WeatherDisplay:10.37,2013-01-22 08:32:00,
2013-01-22 00:37:00,38.3,33.0,30.13,ENE,64,0.0,0.0,81,0.00,CLR,,0.00,WeatherDisplay:10.37,2013-01-22 08:37:00,
2013-01-22 00:42:00,38.7,33.1,30.12,ENE,64,0.0,0.0,80,0.00,CLR,,0.00,WeatherDisplay:10.37,2013-01-22 08:42:00,
2013-01-22 00:47:00,39.2,33.2,30.12,ENE,64,0.0,0.0,79,0.00,CLR,,0.00,WeatherDisplay:10.37,2013-01-22 08:47:00,
2013-01-22 00:52:00,39.4,33.1,30.12,ENE,64,0.0,0.0,78,0.00,CLR,,0.00,WeatherDisplay:10.37,2013-01-22 08:52:00,
2013-01-22 00:57:00,38.7,32.4,30.12,WSW,238,0.0,0.0,78,0.00,CLR,,0.00,WeatherDisplay:10.37,2013-01-22 08:57:00,
2013-01-22 01:02:00,37.6,32.3,30.12,WSW,239,0.0,0.0,81,0.00,CLR,,0.00,WeatherDisplay:10.37,2013-01-22 09:02:00,
2013-01-22 01:07:00,36.9,31.9,30.12,WSW,240,0.0,0.0,82,0.00,CLR,,0.00,WeatherDisplay:10.37,2013-01-22 09:07:00,
2013-01-22 01:12:00,36.3,31.3,30.12,WSW,239,0.0,0.0,82,0.00,CLR,,0.00,WeatherDisplay:10.37,2013-01-22 09:12:00,
2013-01-22 01:17:00,35.8,31.4,30.12,WSW,237,0.0,0.0,84,0.00,CLR,,0.00,WeatherDisplay:10.37,2013-01-22 09:17:00,
2013-01-22 01:22:00,35.8,32.0,30.13,SSW,203,0.0,0.0,86,0.00,CLR,,0.00,WeatherDisplay:10.37,2013-01-22 09:22:00,
2013-01-22 01:27:00,35.6,31.8,30.13,WSW,241,2.3,2.3,86,0.00,CLR,,0.00,WeatherDisplay:10.37,2013-01-22 09:27:00,
2013-01-22 01:32:00,35.7,32.2,30.13,WSW,248,1.1,0.0,87,0.00,CLR,,0.00,WeatherDisplay:10.37,2013-01-22 09:32:00,
2013-01-22 01:37:00,35.6,31.8,30.13,WSW,248,0.0,0.0,86,0.00,CLR,,0.00,WeatherDisplay:10.37,2013-01-22 09:37:00,
2013-01-22 01:43:00,35.0,31.2,30.13,WSW,248,0.0,0.0,86,0.00,CLR,,0.00,WeatherDisplay:10.37,2013-01-22 09:43:00,
2013-01-22 01:48:00,34.7,31.2,30.13,WSW,248,0.0,0.0,87,0.00,CLR,,0.00,WeatherDisplay:10.37,2013-01-22 09:48:00,
2013-01-22 01:53:00,34.0,30.3,30.13,WSW,248,0.0,0.0,86,0.00,CLR,,0.00,WeatherDisplay:10.37,2013-01-22 09:53:00,
2013-01-22 01:58:00,33.6,30.1,30.13,WSW,248,0.0,0.0,87,0.00,CLR,,0.00,WeatherDisplay:10.37,2013-01-22 09:58:00,
2013-01-22 02:03:00,33.5,30.3,30.13,WSW,248,0.0,0.0,88,0.00,CLR,,0.00,WeatherDisplay:10.37,2013-01-22 10:03:00,
2013-01-22 02:08:00,33.5,30.6,30.13,WSW,248,0.0,0.0,89,0.00,CLR,,0.00,WeatherDisplay:10.37,2013-01-22 10:08:00,
2013-01-22 02:13:00,33.3,30.4,30.13,WSW,248,0.0,0.0,89,0.00,CLR,,0.00,WeatherDisplay:10.37,2013-01-22 10:13:00,
2013-01-22 02:18:00,33.2,30.3,30.13,WSW,248,0.0,0.0,89,0.00,CLR,,0.00,WeatherDisplay:10.37,2013-01-22 10:18:00,
2013-01-22 02:23:00,33.2,30.6,30.13,WSW,248,0.0,0.0,90,0.00,CLR,,0.00,WeatherDisplay:10.37,2013-01-22 10:23:00,
2013-01-22 02:28:00,33.0,30.4,30.13,North,1,0.0,0.0,90,0.00,CLR,,0.00,WeatherDisplay:10.37,2013-01-22 10:28:00,
2013-01-22 02:33:00,33.0,30.7,30.13,North,1,0.0,0.0,91,0.00,CLR,,0.00,WeatherDisplay:10.37,2013-01-22 10:33:00,
2013-01-22 02:38:00,33.1,30.8,30.13,NNW,333,1.1,1.1,91,0.00,CLR,,0.00,WeatherDisplay:10.37,2013-01-22 10:38:00,
2013-01-22 02:43:00,33.5,31.2,30.13,NNW,344,2.3,2.3,91,0.00,CLR,,0.00,WeatherDisplay:10.37,2013-01-22 10:43:00,
2013-01-22 02:48:00,33.8,31.5,30.12,NNW,330,2.3,2.3,91,0.00,CLR,,0.00,WeatherDisplay:10.37,2013-01-22 10:48:00,
2013-01-22 02:53:00,33.4,30.5,30.13,North,354,2.3,2.3,89,0.00,CLR,,0.00,WeatherDisplay:10.37,2013-01-22 10:53:00,
2013-01-22 02:59:00,33.3,31.0,30.12,NNW,342,3.5,3.5,91,0.00,CLR,,0.00,WeatherDisplay:10.37,2013-01-22 10:59:00,
2013-01-22 03:04:00,33.5,30.9,30.13,NW,326,2.3,2.3,90,0.00,CLR,,0.00,WeatherDisplay:10.37,2013-01-22 11:04:00,
2013-01-22 03:09:00,34.0,31.1,30.13,North,359,2.3,2.3,89,0.00,CLR,,0.00,WeatherDisplay:10.37,2013-01-22 11:09:00,
2013-01-22 03:14:00,33.8,30.6,30.13,NNE,20,3.5,3.5,88,0.00,CLR,,0.00,WeatherDisplay:10.37,2013-01-22 11:14:00,
2013-01-22 03:19:00,32.9,29.7,30.13,NNE,28,2.3,2.3,88,0.00,CLR,,0.00,WeatherDisplay:10.37,2013-01-22 11:19:00,
2013-01-22 03:24:00,32.5,29.6,30.12,NNE,29,1.1,1.1,89,0.00,CLR,,0.00,WeatherDisplay:10.37,2013-01-22 11:24:00,
2013-01-22 03:30:00,32.7,30.4,30.12,NNE,23,1.1,1.1,91,0.00,CLR,,0.00,WeatherDisplay:10.37,2013-01-22 11:30:00,
2013-01-22 03:35:00,33.3,30.7,30.12,NNE,24,1.1,1.1,90,0.00,CLR,,0.00,WeatherDisplay:10.37,2013-01-22 11:35:00,
2013-01-22 03:40:00,33.5,30.3,30.12,WSW,248,1.1,1.1,88,0.00,CLR,,0.00,WeatherDisplay:10.37,2013-01-22 11:40:00,
2013-01-22 03:45:00,34.0,31.4,30.11,NNW,331,0.0,0.0,90,0.00,CLR,,0.00,WeatherDisplay:10.37,2013-01-22 11:45:00,
2013-01-22 03:50:00,34.4,31.2,30.11,NNW,332,0.0,0.0,88,0.00,CLR,,0.00,WeatherDisplay:10.37,2013-01-22 11:50:00,
2013-01-22 03:55:00,34.3,30.8,30.11,NNW,345,1.1,1.1,87,0.00,CLR,,0.00,WeatherDisplay:10.37,2013-01-22 11:55:00,
2013-01-22 04:00:00,33.9,30.4,30.11,North,5,2.3,2.3,87,0.00,CLR,,0.00,WeatherDisplay:10.37,2013-01-22 12:00:00,
2013-01-22 04:05:00,33.1,29.7,30.11,North,6,1.1,1.1,87,0.00,CLR,,0.00,WeatherDisplay:10.37,2013-01-22 12:05:00,
2013-01-22 04:10:00,32.6,29.7,30.10,NE,34,0.0,0.0,89,0.00,CLR,,0.00,WeatherDisplay:10.37,2013-01-22 12:10:00,
2013-01-22 04:15:00,32.6,29.7,30.10,NE,34,1.1,0.0,89,0.00,CLR,,0.00,WeatherDisplay:10.37,2013-01-22 12:15:00,
2013-01-22 04:20:00,33.2,30.6,30.10,NNW,342,2.3,2.3,90,0.00,CLR,,0.00,WeatherDisplay:10.37,2013-01-22 12:20:00,
2013-01-22 04:26:00,34.2,31.0,30.10,NNW,330,2.3,2.3,88,0.00,CLR,,0.00,WeatherDisplay:10.37,2013-01-22 12:26:00,
2013-01-22 04:31:00,34.5,30.5,30.10,NNW,340,2.3,2.3,85,0.00,CLR,,0.00,WeatherDisplay:10.37,2013-01-22 12:31:00,
2013-01-22 04:36:00,34.3,30.5,30.10,NNE,17,2.3,2.3,86,0.00,CLR,,0.00,WeatherDisplay:10.37,2013-01-22 12:36:00,
2013-01-22 04:41:00,34.9,31.1,30.10,NW,322,1.1,0.0,86,0.00,CLR,,0.00,WeatherDisplay:10.37,2013-01-22 12:41:00,
2013-01-22 04:46:00,35.1,30.8,30.10,North,354,1.1,1.1,84,0.00,CLR,,0.00,WeatherDisplay:10.37,2013-01-22 12:46:00,
2013-01-22 04:51:00,34.6,30.3,30.10,NNW,345,3.5,3.5,84,0.00,CLR,,0.00,WeatherDisplay:10.37,2013-01-22 12:51:00,
2013-01-22 04:56:00,34.0,29.7,30.10,NNE,18,3.5,3.5,84,0.00,CLR,,0.00,WeatherDisplay:10.37,2013-01-22 12:56:00,
2013-01-22 05:01:00,34.4,30.4,30.10,NNW,330,2.3,2.3,85,0.00,CLR,,0.00,WeatherDisplay:10.37,2013-01-22 13:01:00,
2013-01-22 05:06:00,34.9,30.8,30.10,NW,316,0.0,0.0,85,0.00,CLR,,0.00,WeatherDisplay:10.37,2013-01-22 13:06:00,
2013-01-22 05:11:00,35.1,30.5,30.10,NW,316,1.1,1.1,83,0.00,CLR,,0.00,WeatherDisplay:10.37,2013-01-22 13:11:00,
2013-01-22 05:17:00,35.0,30.4,30.10,NW,316,1.1,1.1,83,0.00,CLR,,0.00,WeatherDisplay:10.37,2013-01-22 13:17:00,
2013-01-22 05:22:00,34.5,30.2,30.10,NW,325,1.1,1.1,84,0.00,CLR,,0.00,WeatherDisplay:10.37,2013-01-22 13:22:00,
2013-01-22 05:27:00,35.2,30.9,30.10,West,280,1.1,1.1,84,0.00,CLR,,0.00,WeatherDisplay:10.37,2013-01-22 13:27:00,
2013-01-22 05:32:00,35.5,29.9,30.10,WSW,246,1.1,1.1,80,0.00,CLR,,0.00,WeatherDisplay:10.37,2013-01-22 13:32:00,
2013-01-22 05:37:00,34.6,30.0,30.10,SW,233,0.0,0.0,83,0.00,CLR,,0.00,WeatherDisplay:10.37,2013-01-22 13:37:00,
2013-01-22 05:43:00,34.4,29.5,30.11,ENE,75,1.1,1.1,82,0.00,CLR,,0.00,WeatherDisplay:10.37,2013-01-22 13:43:00,
2013-01-22 05:48:00,34.7,30.4,30.11,ENE,67,1.1,1.1,84,0.00,CLR,,0.00,WeatherDisplay:10.37,2013-01-22 13:48:00,
2013-01-22 05:53:00,34.9,30.0,30.11,WSW,239,1.1,1.1,82,0.00,CLR,,0.00,WeatherDisplay:10.37,2013-01-22 13:53:00,
2013-01-22 05:58:00,34.8,30.2,30.11,WSW,239,1.1,1.1,83,0.00,CLR,,0.00,WeatherDisplay:10.37,2013-01-22 13:58:00,
2013-01-22 06:03:00,34.8,30.2,30.11,WSW,239,0.0,0.0,83,0.00,CLR,,0.00,WeatherDisplay:10.37,2013-01-22 14:03:00,
2013-01-22 06:08:00,34.8,30.2,30.11,WSW,239,0.0,0.0,83,0.00,CLR,,0.00,WeatherDisplay:10.37,2013-01-22 14:08:00,
2013-01-22 06:13:00,34.2,29.3,30.11,WSW,239,0.0,0.0,82,0.00,CLR,,0.00,WeatherDisplay:10.37,2013-01-22 14:13:00,
2013-01-22 06:18:00,33.7,29.7,30.11,WSW,240,0.0,0.0,85,0.00,CLR,,0.00,WeatherDisplay:10.37,2013-01-22 14:18:00,
2013-01-22 06:23:00,33.7,29.4,30.11,WSW,239,1.1,1.1,84,0.00,CLR,,0.00,WeatherDisplay:10.37,2013-01-22 14:23:00,
2013-01-22 06:28:00,33.5,29.5,30.11,WSW,240,1.1,1.1,85,0.00,CLR,,0.00,WeatherDisplay:10.37,2013-01-22 14:28:00,
2013-01-22 06:33:00,33.3,29.6,30.11,WSW,239,0.0,0.0,86,0.00,CLR,,0.00,WeatherDisplay:10.37,2013-01-22 14:33:00,
2013-01-22 06:38:00,33.3,29.6,30.11,WSW,239,1.1,1.1,86,0.00,CLR,,0.00,WeatherDisplay:10.37,2013-01-22 14:38:00,
2013-01-22 06:43:00,33.2,29.5,30.11,WSW,239,0.0,0.0,86,0.00,CLR,,0.00,WeatherDisplay:10.37,2013-01-22 14:43:00,
2013-01-22 06:49:00,32.8,29.1,30.11,WSW,239,0.0,0.0,86,0.00,CLR,,0.00,WeatherDisplay:10.37,2013-01-22 14:49:00,
2013-01-22 06:54:00,32.5,28.8,30.11,WSW,239,0.0,0.0,86,0.00,CLR,,0.00,WeatherDisplay:10.37,2013-01-22 14:54:00,
2013-01-22 06:59:00,31.9,28.5,30.11,WSW,239,0.0,0.0,87,0.00,CLR,,0.00,WeatherDisplay:10.37,2013-01-22 14:59:00,
2013-01-22 07:04:00,31.5,28.1,30.11,WSW,239,0.0,0.0,87,0.00,CLR,,0.00,WeatherDisplay:10.37,2013-01-22 15:04:00,
2013-01-22 07:09:00,31.3,28.2,30.11,WSW,239,0.0,0.0,88,0.00,CLR,,0.00,WeatherDisplay:10.37,2013-01-22 15:09:00,
2013-01-22 07:14:00,31.2,28.1,30.11,WSW,239,0.0,0.0,88,0.00,CLR,,0.00,WeatherDisplay:10.37,2013-01-22 15:14:00,
2013-01-22 07:19:00,30.9,28.0,30.11,WSW,239,0.0,0.0,89,0.00,CLR,,0.00,WeatherDisplay:10.37,2013-01-22 15:19:00,
2013-01-22 07:25:00,31.1,28.2,30.11,WSW,239,0.0,0.0,89,0.00,CLR,,0.00,WeatherDisplay:10.37,2013-01-22 15:25:00,
2013-01-22 07:30:00,31.4,28.8,30.11,WSW,239,0.0,0.0,90,0.00,CLR,,0.00,WeatherDisplay:10.37,2013-01-22 15:30:00,
2013-01-22 07:35:00,31.4,28.5,30.11,SW,228,1.1,1.1,89,0.00,CLR,,0.00,WeatherDisplay:10.37,2013-01-22 15:35:00,
2013-01-22 07:40:00,31.6,29.0,30.11,SW,231,1.1,1.1,90,0.00,CLR,,0.00,WeatherDisplay:10.37,2013-01-22 15:40:00,
2013-01-22 07:45:00,31.8,29.2,30.11,SW,231,1.1,1.1,90,0.00,CLR,,0.00,WeatherDisplay:10.37,2013-01-22 15:45:00,
2013-01-22 07:50:00,31.9,29.3,30.12,SW,229,1.1,1.1,90,0.00,CLR,,0.00,WeatherDisplay:10.37,2013-01-22 15:50:00,
2013-01-22 07:56:00,32.1,29.5,30.12,SE,144,1.1,1.1,90,0.00,CLR,,0.00,WeatherDisplay:10.37,2013-01-22 15:56:00,
2013-01-22 08:01:00,32.4,29.5,30.12,SSW,195,1.1,1.1,89,0.00,CLR,,0.00,WeatherDisplay:10.37,2013-01-22 16:01:00,
2013-01-22 08:07:00,32.8,29.6,30.12,South,187,2.3,2.3,88,0.00,CLR,,0.00,WeatherDisplay:10.37,2013-01-22 16:07:00,
2013-01-22 08:12:00,33.2,30.0,30.12,SW,226,1.1,1.1,88,0.00,CLR,,0.00,WeatherDisplay:10.37,2013-01-22 16:12:00,
2013-01-22 08:17:00,33.8,30.6,30.12,WSW,246,1.1,1.1,88,0.00,CLR,,0.00,WeatherDisplay:10.37,2013-01-22 16:17:00,
2013-01-22 08:22:00,34.6,31.1,30.12,WSW,241,1.1,1.1,87,0.00,CLR,,0.00,WeatherDisplay:10.37,2013-01-22 16:22:00,
2013-01-22 08:27:00,35.3,31.2,30.12,WSW,240,1.1,1.1,85,0.00,CLR,,0.00,WeatherDisplay:10.37,2013-01-22 16:27:00,
2013-01-22 08:32:00,35.8,31.7,30.12,WSW,241,0.0,0.0,85,0.00,CLR,,0.00,WeatherDisplay:10.37,2013-01-22 16:32:00,
2013-01-22 08:37:00,36.3,32.2,30.12,West,276,1.0,1.0,85,0.00,CLR,,0.00,WeatherDisplay:10.37,2013-01-22 16:37:00,
2013-01-22 08:42:00,36.1,32.3,30.12,ENE,78,2.3,2.3,86,0.00,CLR,,0.00,WeatherDisplay:10.37,2013-01-22 16:42:00,
2013-01-22 08:47:00,36.1,32.6,30.13,ENE,77,0.0,0.0,87,0.00,CLR,,0.00,WeatherDisplay:10.37,2013-01-22 16:47:00,
2013-01-22 08:52:00,36.4,32.9,30.12,WSW,248,1.0,1.0,87,0.00,CLR,,0.00,WeatherDisplay:10.37,2013-01-22 16:52:00,
2013-01-22 08:58:00,37.3,33.2,30.12,WSW,242,1.1,1.1,85,0.00,CLR,,0.00,WeatherDisplay:10.37,2013-01-22 16:58:00,
2013-01-22 09:03:00,38.1,33.4,30.12,WSW,242,1.1,0.0,83,0.00,CLR,,0.00,WeatherDisplay:10.37,2013-01-22 17:03:00,
2013-01-22 09:08:00,38.8,33.5,30.12,WSW,249,1.1,1.1,81,0.00,CLR,,0.00,WeatherDisplay:10.37,2013-01-22 17:08:00,
2013-01-22 09:13:00,39.3,34.6,30.12,NE,43,2.3,2.3,83,0.00,CLR,,0.00,WeatherDisplay:10.37,2013-01-22 17:13:00,
2013-01-22 09:19:00,39.6,34.9,30.12,North,8,2.3,2.3,83,0.00,CLR,,0.00,WeatherDisplay:10.37,2013-01-22 17:19:00,
2013-01-22 09:24:00,40.1,35.0,30.12,North,6,2.3,2.3,82,0.00,CLR,,0.00,WeatherDisplay:10.37,2013-01-22 17:24:00,
2013-01-22 09:29:00,40.8,35.1,30.12,NNW,340,2.3,2.3,80,0.00,CLR,,0.00,WeatherDisplay:10.37,2013-01-22 17:29:00,
2013-01-22 09:34:00,41.6,35.9,30.12,NE,34,3.0,3.1,80,0.00,CLR,,0.00,WeatherDisplay:10.37,2013-01-22 17:34:00,
2013-01-22 09:39:00,42.7,36.3,30.12,NNW,340,3.5,3.5,78,0.00,CLR,,0.00,WeatherDisplay:10.37,2013-01-22 17:39:00,
2013-01-22 09:44:00,43.6,36.2,30.12,North,351,3.5,3.5,75,0.00,CLR,,0.00,WeatherDisplay:10.37,2013-01-22 17:44:00,
2013-01-22 09:49:00,44.7,35.9,30.12,NNE,27,4.6,4.6,71,0.00,CLR,,0.00,WeatherDisplay:10.37,2013-01-22 17:49:00,
2013-01-22 09:54:00,46.0,35.7,30.12,NNE,22,4.6,4.6,67,0.00,CLR,,0.00,WeatherDisplay:10.37,2013-01-22 17:54:00,
2013-01-22 09:59:00,46.9,35.7,30.12,North,359,3.5,3.5,65,0.00,CLR,,0.00,WeatherDisplay:10.37,2013-01-22 17:59:00,
2013-01-22 10:04:00,48.0,37.6,30.13,NNW,342,2.3,2.3,67,0.00,CLR,,0.00,WeatherDisplay:10.37,2013-01-22 18:04:00,
2013-01-22 10:09:00,48.7,36.3,30.12,NNW,334,3.5,3.5,62,0.00,CLR,,0.00,WeatherDisplay:10.37,2013-01-22 18:09:00,
2013-01-22 10:14:00,49.5,37.0,30.12,NNW,345,3.5,3.5,62,0.00,CLR,,0.00,WeatherDisplay:10.37,2013-01-22 18:14:00,
2013-01-22 10:19:00,50.3,37.8,30.13,NE,34,3.5,3.5,62,0.00,CLR,,0.00,WeatherDisplay:10.37,2013-01-22 18:19:00,
2013-01-22 10:24:00,51.1,36.4,30.12,NNE,28,3.5,3.5,57,0.00,CLR,,0.00,WeatherDisplay:10.37,2013-01-22 18:24:00,
2013-01-22 10:30:00,51.9,36.7,30.12,NNW,334,3.5,3.5,56,0.00,CLR,,0.00,WeatherDisplay:10.37,2013-01-22 18:30:00,
2013-01-22 10:35:00,52.7,37.0,30.12,NNW,333,3.5,3.5,55,0.00,CLR,,0.00,WeatherDisplay:10.37,2013-01-22 18:35:00,
2013-01-22 10:40:00,53.3,37.1,30.12,North,4,3.5,3.5,54,0.00,CLR,,0.00,WeatherDisplay:10.37,2013-01-22 18:40:00,
2013-01-22 10:45:00,54.1,38.3,30.12,NNE,25,3.5,3.5,55,0.00,CLR,,0.00,WeatherDisplay:10.37,2013-01-22 18:45:00,
2013-01-22 10:50:00,54.9,38.6,30.12,NNW,338,2.3,2.3,54,0.00,CLR,,0.00,WeatherDisplay:10.37,2013-01-22 18:50:00,
2013-01-22 10:55:00,55.7,38.3,30.12,North,353,3.5,3.5,52,0.00,CLR,,0.00,WeatherDisplay:10.37,2013-01-22 18:55:00,
2013-01-22 11:00:00,56.6,39.7,30.12,North,5,4.6,4.6,53,0.00,CLR,,0.00,WeatherDisplay:10.37,2013-01-22 19:00:00,
2013-01-22 11:05:00,57.7,39.2,30.12,NNE,22,5.8,5.8,50,0.00,CLR,,0.00,WeatherDisplay:10.37,2013-01-22 19:05:00,
2013-01-22 11:10:00,58.5,37.8,30.12,NW,324,3.5,3.5,46,0.00,CLR,,0.00,WeatherDisplay:10.37,2013-01-22 19:10:00,
2013-01-22 11:15:00,59.4,39.1,30.12,NE,45,5.8,5.8,47,0.00,CLR,,0.00,WeatherDisplay:10.37,2013-01-22 19:15:00,
2013-01-22 11:21:00,59.8,37.8,30.12,NNE,29,6.9,6.9,44,0.00,CLR,,0.00,WeatherDisplay:10.37,2013-01-22 19:21:00,
2013-01-22 11:26:00,60.3,38.9,30.11,North,359,5.8,5.8,45,0.00,CLR,,0.00,WeatherDisplay:10.37,2013-01-22 19:26:00,
2013-01-22 11:32:00,60.9,37.0,30.11,NNE,20,5.0,5.0,41,0.00,CLR,,0.00,WeatherDisplay:10.37,2013-01-22 19:32:00,
2013-01-22 11:37:00,61.4,38.1,30.11,NNE,19,3.5,3.5,42,0.00,CLR,,0.00,WeatherDisplay:10.37,2013-01-22 19:37:00,
2013-01-22 11:42:00,61.9,37.9,30.11,NNE,30,4.0,4.0,41,0.00,CLR,,0.00,WeatherDisplay:10.37,2013-01-22 19:42:00,
2013-01-22 11:47:00,62.4,37.7,30.10,ENE,75,5.8,5.8,40,0.00,CLR,,0.00,WeatherDisplay:10.37,2013-01-22 19:47:00,
2013-01-22 11:52:00,62.8,37.5,30.10,ENE,67,3.5,3.5,39,0.00,CLR,,0.00,WeatherDisplay:10.37,2013-01-22 19:52:00,
2013-01-22 11:57:00,63.6,38.8,30.09,NE,49,2.3,2.3,40,0.00,CLR,,0.00,WeatherDisplay:10.37,2013-01-22 19:57:00,
2013-01-22 12:02:00,64.2,38.0,30.09,ENE,73,2.3,2.3,38,0.00,CLR,,0.00,WeatherDisplay:10.37,2013-01-22 20:02:00,
2013-01-22 12:07:00,64.3,38.1,30.08,NE,36,4.6,4.6,38,0.00,CLR,,0.00,WeatherDisplay:10.37,2013-01-22 20:07:00,
2013-01-22 12:13:00,64.2,37.4,30.08,East,80,2.3,2.3,37,0.00,CLR,,0.00,WeatherDisplay:10.37,2013-01-22 20:13:00,
2013-01-22 12:18:00,64.8,36.5,30.08,ESE,115,0.0,0.0,35,0.00,CLR,,0.00,WeatherDisplay:10.37,2013-01-22 20:18:00,
2013-01-22 12:23:00,65.8,34.3,30.08,SE,139,0.0,0.0,31,0.00,CLR,,0.00,WeatherDisplay:10.37,2013-01-22 20:23:00,
2013-01-22 12:28:00,66.6,33.3,30.07,North,357,1.1,1.1,29,0.00,CLR,,0.00,WeatherDisplay:10.37,2013-01-22 20:28:00,
2013-01-22 12:33:00,66.0,33.7,30.07,NE,36,5.8,5.8,30,0.00,CLR,,0.00,WeatherDisplay:10.37,2013-01-22 20:33:00,
2013-01-22 12:38:00,65.8,34.3,30.07,NW,326,3.0,3.0,31,0.00,CLR,,0.00,WeatherDisplay:10.37,2013-01-22 20:38:00,
2013-01-22 12:43:00,66.2,33.8,30.07,WSW,240,2.3,2.3,30,0.00,CLR,,0.00,WeatherDisplay:10.37,2013-01-22 20:43:00,
2013-01-22 12:49:00,66.4,34.8,30.06,NW,318,2.3,2.3,31,0.00,CLR,,0.00,WeatherDisplay:10.37,2013-01-22 20:49:00,
2013-01-22 12:54:00,66.1,33.7,30.06,ENE,66,3.5,3.5,30,0.00,CLR,,0.00,WeatherDisplay:10.37,2013-01-22 20:54:00,
2013-01-22 12:59:00,65.7,33.4,30.06,NNE,23,1.1,1.1,30,0.00,CLR,,0.00,WeatherDisplay:10.37,2013-01-22 20:59:00,
2013-01-22 13:04:00,65.8,34.3,30.05,NE,49,3.5,3.5,31,0.00,CLR,,0.00,WeatherDisplay:10.37,2013-01-22 21:04:00,
2013-01-22 13:09:00,66.1,35.4,30.05,SSE,165,3.0,3.0,32,0.00,CLR,,0.00,WeatherDisplay:10.37,2013-01-22 21:09:00,
2013-01-22 13:15:00,67.2,33.8,30.05,WSW,247,3.5,3.5,29,0.00,CLR,,0.00,WeatherDisplay:10.37,2013-01-22 21:15:00,
2013-01-22 13:20:00,67.5,35.0,30.05,WSW,246,4.0,4.0,30,0.00,CLR,,0.00,WeatherDisplay:10.37,2013-01-22 21:20:00,
2013-01-22 13:25:00,67.4,35.7,30.05,WSW,239,3.5,3.5,31,0.00,CLR,,0.00,WeatherDisplay:10.37,2013-01-22 21:25:00,
2013-01-22 13:30:00,68.1,37.1,30.05,SW,231,3.5,3.5,32,0.00,CLR,,0.00,WeatherDisplay:10.37,2013-01-22 21:30:00,
2013-01-22 13:32:00,68.2,36.4,30.05,South,180,3.5,3.5,31,0.00,CLR,,0.00,WeatherDisplay:10.37,2013-01-22 21:32:00,
2013-01-22 13:37:00,68.1,37.1,30.04,South,186,3.5,3.5,32,0.00,CLR,,0.00,WeatherDisplay:10.37,2013-01-22 21:37:00,
2013-01-22 13:42:00,68.1,37.1,30.04,SSE,149,4.6,4.6,32,0.00,CLR,,0.00,WeatherDisplay:10.37,2013-01-22 21:42:00,
2013-01-22 13:47:00,68.3,37.3,30.03,ESE,120,2.3,2.3,32,0.00,CLR,,0.00,WeatherDisplay:10.37,2013-01-22 21:47:00,
2013-01-22 13:53:00,68.1,37.1,30.03,SSE,160,4.6,4.6,32,0.00,CLR,,0.00,WeatherDisplay:10.37,2013-01-22 21:53:00,
2013-01-22 13:58:00,68.1,37.1,30.03,SSE,156,3.5,3.5,32,0.00,CLR,,0.00,WeatherDisplay:10.37,2013-01-22 21:58:00,
2013-01-22 14:03:00,68.1,37.1,30.03,ESE,105,3.5,3.5,32,0.00,CLR,,0.00,WeatherDisplay:10.37,2013-01-22 22:03:00,
2013-01-22 14:08:00,67.8,37.6,30.03,South,173,2.3,2.3,33,0.00,CLR,,0.00,WeatherDisplay:10.37,2013-01-22 22:08:00,
2013-01-22 14:13:00,67.5,36.6,30.03,SSE,156,4.6,4.6,32,0.00,CLR,,0.00,WeatherDisplay:10.37,2013-01-22 22:13:00,
2013-01-22 14:18:00,67.5,37.4,30.03,SSE,152,2.3,2.3,33,0.00,CLR,,0.00,WeatherDisplay:10.37,2013-01-22 22:18:00,
2013-01-22 14:23:00,67.7,37.5,30.03,SW,229,3.5,3.5,33,0.00,CLR,,0.00,WeatherDisplay:10.37,2013-01-22 22:23:00,
2013-01-22 14:28:00,67.6,37.5,30.03,South,173,2.3,2.3,33,0.00,CLR,,0.00,WeatherDisplay:10.37,2013-01-22 22:28:00,
2013-01-22 14:33:00,67.5,37.4,30.03,WSW,243,2.3,2.3,33,0.00,CLR,,0.00,WeatherDisplay:10.37,2013-01-22 22:33:00,
2013-01-22 14:38:00,67.9,37.7,30.03,South,189,3.5,3.5,33,0.00,CLR,,0.00,WeatherDisplay:10.37,2013-01-22 22:38:00,
2013-01-22 14:43:00,68.4,37.4,30.03,South,180,3.5,3.5,32,0.00,CLR,,0.00,WeatherDisplay:10.37,2013-01-22 22:43:00,
2013-01-22 14:48:00,68.5,37.5,30.03,SW,224,3.5,3.5,32,0.00,CLR,,0.00,WeatherDisplay:10.37,2013-01-22 22:48:00,
2013-01-22 14:54:00,68.5,37.5,30.03,SW,217,2.3,2.3,32,0.00,CLR,,0.00,WeatherDisplay:10.37,2013-01-22 22:54:00,
2013-01-22 14:59:00,68.1,37.1,30.03,SW,219,2.3,2.3,32,0.00,CLR,,0.00,WeatherDisplay:10.37,2013-01-22 22:59:00,
2013-01-22 15:04:00,67.6,37.5,30.02,SSE,147,2.3,2.3,33,0.00,CLR,,0.00,WeatherDisplay:10.37,2013-01-22 23:04:00,
2013-01-22 15:09:00,66.9,37.6,30.03,SSE,159,3.5,3.5,34,0.00,CLR,,0.00,WeatherDisplay:10.37,2013-01-22 23:09:00,
2013-01-22 15:14:00,66.3,37.8,30.03,SSE,155,3.5,3.5,35,0.00,CLR,,0.00,WeatherDisplay:10.37,2013-01-22 23:14:00,
2013-01-22 15:19:00,66.0,37.5,30.03,SW,233,3.5,3.5,35,0.00,CLR,,0.00,WeatherDisplay:10.37,2013-01-22 23:19:00,
2013-01-22 15:24:00,65.8,38.1,30.03,SW,225,2.3,2.3,36,0.00,CLR,,0.00,WeatherDisplay:10.37,2013-01-22 23:24:00,
2013-01-22 15:30:00,65.6,37.9,30.02,SSE,163,3.0,3.0,36,0.00,CLR,,0.00,WeatherDisplay:10.37,2013-01-22 23:30:00,
2013-01-22 15:35:00,65.5,38.5,30.02,SSW,203,1.1,1.1,37,0.00,CLR,,0.00,WeatherDisplay:10.37,2013-01-22 23:35:00,
2013-01-22 15:40:00,65.3,38.3,30.02,South,176,2.3,2.3,37,0.00,CLR,,0.00,WeatherDisplay:10.37,2013-01-22 23:40:00,
2013-01-22 15:45:00,65.0,38.1,30.02,SSE,157,2.3,2.3,37,0.00,CLR,,0.00,WeatherDisplay:10.37,2013-01-22 23:45:00,
2013-01-22 15:50:00,64.6,39.1,30.02,SSE,154,1.1,1.1,39,0.00,CLR,,0.00,WeatherDisplay:10.37,2013-01-22 23:50:00,
2013-01-22 15:55:00,64.4,39.5,30.02,SSW,193,2.3,2.3,40,0.00,CLR,,0.00,WeatherDisplay:10.37,2013-01-22 23:55:00,
2013-01-22 16:00:00,64.1,40.5,30.01,SSE,158,4.6,4.6,42,0.00,CLR,,0.00,WeatherDisplay:10.37,2013-01-23 00:00:00,
2013-01-22 16:05:00,63.6,40.7,30.02,SSE,154,3.5,3.5,43,0.00,CLR,,0.00,WeatherDisplay:10.37,2013-01-23 00:05:00,
2013-01-22 16:10:00,63.3,41.0,30.01,South,184,2.0,2.0,44,0.00,CLR,,0.00,WeatherDisplay:10.37,2013-01-23 00:10:00,
2013-01-22 16:15:00,63.0,41.3,30.02,SSE,148,3.5,3.5,45,0.00,CLR,,0.00,WeatherDisplay:10.37,2013-01-23 00:15:00,
2013-01-22 16:20:00,62.8,41.7,30.02,SSE,163,3.5,3.5,46,0.00,CLR,,0.00,WeatherDisplay:10.37,2013-01-23 00:20:00,
2013-01-22 16:25:00,62.4,41.9,30.01,SSE,165,1.1,1.1,47,0.00,CLR,,0.00,WeatherDisplay:10.37,2013-01-23 00:25:00,
2013-01-22 16:30:00,62.1,42.2,30.01,SSE,153,0.0,0.1,48,0.00,CLR,,0.00,WeatherDisplay:10.37,2013-01-23 00:30:00,
2013-01-22 16:35:00,61.6,41.7,30.01,SSE,160,2.3,2.3,48,0.00,CLR,,0.00,WeatherDisplay:10.37,2013-01-23 00:35:00,
2013-01-22 16:40:00,61.3,42.0,30.01,SSE,162,1.1,1.1,49,0.00,CLR,,0.00,WeatherDisplay:10.37,2013-01-23 00:40:00,
2013-01-22 16:45:00,61.1,41.8,30.01,SSE,164,1.1,1.1,49,0.00,CLR,,0.00,WeatherDisplay:10.37,2013-01-23 00:45:00,
2013-01-22 16:50:00,60.8,41.5,30.01,SSE,163,0.0,0.0,49,0.00,CLR,,0.00,WeatherDisplay:10.37,2013-01-23 00:50:00,
2013-01-22 16:55:00,60.4,41.7,30.01,SSE,163,1.1,1.1,50,0.00,CLR,,0.00,WeatherDisplay:10.37,2013-01-23 00:55:00,
2013-01-22 17:00:00,59.6,41.4,30.02,SSE,163,0.0,0.0,51,0.00,CLR,,0.00,WeatherDisplay:10.37,2013-01-23 01:00:00,
2013-01-22 17:05:00,59.1,41.5,30.02,SSE,163,0.0,0.0,52,0.00,CLR,,0.00,WeatherDisplay:10.37,2013-01-23 01:05:00,
2013-01-22 17:11:00,58.6,41.5,30.01,SSE,163,0.0,0.0,53,0.00,CLR,,0.00,WeatherDisplay:10.37,2013-01-23 01:11:00,
2013-01-22 17:17:00,58.1,41.0,30.01,SSE,163,0.0,0.0,53,0.00,CLR,,0.00,WeatherDisplay:10.37,2013-01-23 01:17:00,
2013-01-22 17:22:00,57.9,41.3,30.01,SSE,164,0.0,0.0,54,0.00,CLR,,0.00,WeatherDisplay:10.37,2013-01-23 01:22:00,
2013-01-22 17:28:00,57.6,42.0,30.01,SSE,163,0.0,0.0,56,0.00,CLR,,0.00,WeatherDisplay:10.37,2013-01-23 01:28:00,
2013-01-22 17:33:00,57.2,42.5,30.01,SSE,163,0.0,0.0,58,0.00,CLR,,0.00,WeatherDisplay:10.37,2013-01-23 01:33:00,
2013-01-22 17:38:00,57.0,43.2,30.02,SW,231,1.1,1.1,60,0.00,CLR,,0.00,WeatherDisplay:10.37,2013-01-23 01:38:00,
2013-01-22 17:43:00,56.9,43.2,30.02,SW,232,0.0,0.0,60,0.00,CLR,,0.00,WeatherDisplay:10.37,2013-01-23 01:43:00,
2013-01-22 17:48:00,56.5,42.8,30.01,SW,232,0.0,0.0,60,0.00,CLR,,0.00,WeatherDisplay:10.37,2013-01-23 01:48:00,
2013-01-22 17:53:00,55.9,42.6,30.01,SW,232,1.1,1.1,61,0.00,CLR,,0.00,WeatherDisplay:10.37,2013-01-23 01:53:00,
2013-01-22 17:58:00,55.2,41.5,30.01,East,82,0.0,0.0,60,0.00,CLR,,0.00,WeatherDisplay:10.37,2013-01-23 01:58:00,
2013-01-22 18:04:00,54.7,41.9,30.01,East,82,0.0,0.0,62,0.00,CLR,,0.00,WeatherDisplay:10.37,2013-01-23 02:04:00,
2013-01-22 18:09:00,54.4,41.6,30.01,East,82,0.0,0.0,62,0.00,CLR,,0.00,WeatherDisplay:10.37,2013-01-23 02:09:00,
2013-01-22 18:14:00,54.1,41.8,30.01,East,83,0.0,0.0,63,0.00,CLR,,0.00,WeatherDisplay:10.37,2013-01-23 02:14:00,
2013-01-22 18:19:00,54.4,41.6,30.01,SSE,158,1.1,1.1,62,0.00,CLR,,0.00,WeatherDisplay:10.37,2013-01-23 02:19:00,
2013-01-22 18:24:00,54.2,42.7,30.02,SSW,205,1.1,1.1,65,0.00,CLR,,0.00,WeatherDisplay:10.37,2013-01-23 02:24:00,
2013-01-22 18:29:00,53.8,42.7,30.02,WSW,240,0.0,0.0,66,0.00,CLR,,0.00,WeatherDisplay:10.37,2013-01-23 02:29:00,
2013-01-22 18:34:00,53.4,42.7,30.02,WSW,240,0.0,0.0,67,0.00,CLR,,0.00,WeatherDisplay:10.37,2013-01-23 02:34:00,
2013-01-22 18:39:00,53.0,41.9,30.02,WSW,240,0.0,0.0,66,0.00,CLR,,0.00,WeatherDisplay:10.37,2013-01-23 02:39:00,
2013-01-22 18:45:00,52.6,41.9,30.01,North,359,0.0,0.0,67,0.00,CLR,,0.00,WeatherDisplay:10.37,2013-01-23 02:45:00,
2013-01-22 18:50:00,52.2,42.0,30.02,NNW,332,2.3,2.3,68,0.00,CLR,,0.00,WeatherDisplay:10.37,2013-01-23 02:50:00,
2013-01-22 18:55:00,52.1,41.5,30.01,NNW,333,2.3,2.3,67,0.00,CLR,,0.00,WeatherDisplay:10.37,2013-01-23 02:55:00,
2013-01-22 19:00:00,52.1,41.9,30.01,NW,314,1.1,1.1,68,0.00,CLR,,0.00,WeatherDisplay:10.37,2013-01-23 03:00:00,
2013-01-22 19:05:00,52.3,42.0,30.02,WNW,287,0.0,0.0,68,0.00,CLR,,0.00,WeatherDisplay:10.37,2013-01-23 03:05:00,
2013-01-22 19:10:00,52.0,41.8,30.02,WSW,238,2.3,2.3,68,0.00,CLR,,0.00,WeatherDisplay:10.37,2013-01-23 03:10:00,
2013-01-22 19:15:00,51.8,41.6,30.02,WSW,239,1.1,1.1,68,0.00,CLR,,0.00,WeatherDisplay:10.37,2013-01-23 03:15:00,
2013-01-22 19:20:00,51.6,41.4,30.02,WSW,239,0.0,0.0,68,0.00,CLR,,0.00,WeatherDisplay:10.37,2013-01-23 03:20:00,
2013-01-22 19:25:00,50.5,40.7,30.02,ESE,105,1.1,0.0,69,0.00,CLR,,0.00,WeatherDisplay:10.37,2013-01-23 03:25:00,
2013-01-22 19:30:00,49.5,40.8,30.02,ESE,105,0.0,0.0,72,0.00,CLR,,0.00,WeatherDisplay:10.37,2013-01-23 03:30:00,
2013-01-22 19:35:00,49.1,40.8,30.02,ESE,105,1.1,1.1,73,0.00,CLR,,0.00,WeatherDisplay:10.37,2013-01-23 03:35:00,
2013-01-22 19:41:00,49.3,41.0,30.03,NNW,338,0.0,0.0,73,0.00,CLR,,0.00,WeatherDisplay:10.37,2013-01-23 03:41:00,
2013-01-22 19:46:00,49.3,41.0,30.03,NNW,336,0.0,0.0,73,0.00,CLR,,0.00,WeatherDisplay:10.37,2013-01-23 03:46:00,
2013-01-22 19:51:00,48.8,40.2,30.03,ENE,67,3.5,3.5,72,0.00,CLR,,0.00,WeatherDisplay:10.37,2013-01-23 03:51:00,
2013-01-22 19:56:00,47.6,40.4,30.03,ENE,67,1.1,1.1,76,0.00,CLR,,0.00,WeatherDisplay:10.37,2013-01-23 03:56:00,
2013-01-22 20:02:00,48.0,40.5,30.02,ENE,67,0.0,0.0,75,0.00,CLR,,0.00,WeatherDisplay:10.37,2013-01-23 04:02:00,
2013-01-22 20:07:00,48.3,41.1,30.02,NW,319,2.3,2.3,76,0.00,CLR,,0.00,WeatherDisplay:10.37,2013-01-23 04:07:00,
2013-01-22 20:12:00,49.5,41.2,30.02,NW,314,1.1,0.0,73,0.00,CLR,,0.00,WeatherDisplay:10.37,2013-01-23 04:12:00,
2013-01-22 20:17:00,49.3,41.0,30.02,WSW,243,1.1,1.1,73,0.00,CLR,,0.00,WeatherDisplay:10.37,2013-01-23 04:17:00,
2013-01-22 20:23:00,49.2,40.6,30.03,West,273,2.3,2.3,72,0.00,CLR,,0.00,WeatherDisplay:10.37,2013-01-23 04:23:00,
2013-01-22 20:28:00,49.0,40.4,30.03,ESE,108,1.1,0.0,72,0.00,CLR,,0.00,WeatherDisplay:10.37,2013-01-23 04:28:00,
2013-01-22 20:33:00,48.0,40.5,30.03,East,85,2.3,2.3,75,0.00,CLR,,0.00,WeatherDisplay:10.37,2013-01-23 04:33:00,
2013-01-22 20:38:00,47.3,40.1,30.03,East,83,2.3,2.3,76,0.00,CLR,,0.00,WeatherDisplay:10.37,2013-01-23 04:38:00,
2013-01-22 20:43:00,47.3,40.5,30.04,ENE,78,2.3,2.3,77,0.00,CLR,,0.00,WeatherDisplay:10.37,2013-01-23 04:43:00,
2013-01-22 20:48:00,47.5,40.6,30.04,ENE,78,1.1,1.1,77,0.00,CLR,,0.00,WeatherDisplay:10.37,2013-01-23 04:48:00,
2013-01-22 20:53:00,47.4,40.6,30.04,ENE,77,2.3,2.3,77,0.00,CLR,,0.00,WeatherDisplay:10.37,2013-01-23 04:53:00,
2013-01-22 20:59:00,47.6,40.4,30.05,NNE,22,1.1,1.1,76,0.00,CLR,,0.00,WeatherDisplay:10.37,2013-01-23 04:59:00,
2013-01-22 21:01:00,47.9,40.7,30.05,NNE,17,1.1,1.1,76,0.00,CLR,,0.00,WeatherDisplay:10.37,2013-01-23 05:01:00,
2013-01-22 21:02:00,47.9,40.7,30.05,NNE,18,1.1,1.1,76,0.00,CLR,,0.00,WeatherDisplay:10.37,2013-01-23 05:02:00,
2013-01-22 21:03:00,48.0,40.8,30.05,NNE,17,1.1,1.1,76,0.00,CLR,,0.00,WeatherDisplay:10.37,2013-01-23 05:03:00,
2013-01-22 21:08:00,48.6,41.0,30.05,NNW,329,1.1,1.1,75,0.00,CLR,,0.00,WeatherDisplay:10.37,2013-01-23 05:08:00,
2013-01-22 21:14:00,48.5,40.9,30.05,NNW,329,0.0,0.0,75,0.00,CLR,,0.00,WeatherDisplay:10.37,2013-01-23 05:14:00,
2013-01-22 21:19:00,48.2,40.6,30.05,NNW,329,0.0,0.0,75,0.00,CLR,,0.00,WeatherDisplay:10.37,2013-01-23 05:19:00,
2013-01-22 21:24:00,48.5,40.9,30.05,West,269,1.1,1.1,75,0.00,CLR,,0.00,WeatherDisplay:10.37,2013-01-23 05:24:00,
2013-01-22 21:29:00,48.1,40.5,30.06,West,268,0.0,0.0,75,0.00,CLR,,0.00,WeatherDisplay:10.37,2013-01-23 05:29:00,
2013-01-22 21:34:00,47.8,40.3,30.06,West,269,0.0,0.0,75,0.00,CLR,,0.00,WeatherDisplay:10.37,2013-01-23 05:34:00,
2013-01-22 21:39:00,46.7,39.9,30.06,West,278,1.1,1.1,77,0.00,CLR,,0.00,WeatherDisplay:10.37,2013-01-23 05:39:00,
2013-01-22 21:45:00,45.7,39.6,30.06,ENE,70,2.3,2.3,79,0.00,CLR,,0.00,WeatherDisplay:10.37,2013-01-23 05:45:00,
2013-01-22 21:50:00,45.0,39.5,30.06,ENE,70,1.1,1.1,81,0.00,CLR,,0.00,WeatherDisplay:10.37,2013-01-23 05:50:00,
2013-01-22 21:55:00,44.9,39.7,30.06,North,1,1.1,1.1,82,0.00,CLR,,0.00,WeatherDisplay:10.37,2013-01-23 05:55:00,
2013-01-22 22:00:00,44.8,39.6,30.06,North,1,0.0,0.0,82,0.00,CLR,,0.00,WeatherDisplay:10.37,2013-01-23 06:00:00,
2013-01-22 22:05:00,44.9,40.0,30.06,NW,319,2.3,2.3,83,0.00,CLR,,0.00,WeatherDisplay:10.37,2013-01-23 06:05:00,
2013-01-22 22:11:00,45.9,40.1,30.06,NW,319,1.1,1.1,80,0.00,CLR,,0.00,WeatherDisplay:10.37,2013-01-23 06:11:00,
2013-01-22 22:16:00,46.0,39.9,30.06,NW,319,1.1,1.1,79,0.00,CLR,,0.00,WeatherDisplay:10.37,2013-01-23 06:16:00,
2013-01-22 22:21:00,45.5,39.4,30.06,NW,325,2.3,2.3,79,0.00,CLR,,0.00,WeatherDisplay:10.37,2013-01-23 06:21:00,
2013-01-22 22:26:00,45.5,39.7,30.06,NW,325,1.1,1.1,80,0.00,CLR,,0.00,WeatherDisplay:10.37,2013-01-23 06:26:00,
2013-01-22 22:32:00,45.7,39.9,30.06,WNW,300,2.3,2.3,80,0.00,CLR,,0.00,WeatherDisplay:10.37,2013-01-23 06:32:00,
2013-01-22 22:37:00,46.0,39.9,30.06,NW,312,0.0,0.0,79,0.00,CLR,,0.00,WeatherDisplay:10.37,2013-01-23 06:37:00,
2013-01-22 22:42:00,45.9,39.8,30.06,NW,312,0.0,0.0,79,0.00,CLR,,0.00,WeatherDisplay:10.37,2013-01-23 06:42:00,
2013-01-22 22:47:00,45.8,39.7,30.06,NW,312,0.0,0.0,79,0.00,CLR,,0.00,WeatherDisplay:10.37,2013-01-23 06:47:00,
2013-01-22 22:52:00,45.5,39.4,30.07,NW,312,0.0,0.0,79,0.00,CLR,,0.00,WeatherDisplay:10.37,2013-01-23 06:52:00,
2013-01-22 22:57:00,45.2,39.4,30.06,NE,34,2.3,2.3,80,0.00,CLR,,0.00,WeatherDisplay:10.37,2013-01-23 06:57:00,
2013-01-22 23:03:00,45.1,39.3,30.06,ENE,63,2.3,2.3,80,0.00,CLR,,0.00,WeatherDisplay:10.37,2013-01-23 07:03:00,
2013-01-22 23:08:00,45.6,39.5,30.06,East,82,0.0,0.0,79,0.00,CLR,,0.00,WeatherDisplay:10.37,2013-01-23 07:08:00,
2013-01-22 23:13:00,46.1,39.6,30.06,East,82,0.0,0.0,78,0.00,CLR,,0.00,WeatherDisplay:10.37,2013-01-23 07:13:00,
2013-01-22 23:18:00,46.0,39.5,30.06,East,82,0.0,0.0,78,0.00,CLR,,0.00,WeatherDisplay:10.37,2013-01-23 07:18:00,
2013-01-22 23:23:00,46.0,39.9,30.06,East,82,0.0,0.0,79,0.00,CLR,,0.00,WeatherDisplay:10.37,2013-01-23 07:23:00,
2013-01-22 23:28:00,46.2,39.7,30.06,NNW,336,1.1,1.1,78,0.00,CLR,,0.00,WeatherDisplay:10.37,2013-01-23 07:28:00,
2013-01-22 23:33:00,46.3,39.8,30.06,WSW,238,2.3,2.3,78,0.00,CLR,,0.00,WeatherDisplay:10.37,2013-01-23 07:33:00,
2013-01-22 23:38:00,46.1,39.6,30.06,WSW,238,0.0,0.0,78,0.00,CLR,,0.00,WeatherDisplay:10.37,2013-01-23 07:38:00,
2013-01-22 23:43:00,45.9,39.4,30.06,East,83,2.0,2.0,78,0.00,CLR,,0.00,WeatherDisplay:10.37,2013-01-23 07:43:00,
2013-01-22 23:49:00,45.9,39.4,30.06,East,82,2.3,2.3,78,0.00,CLR,,0.00,WeatherDisplay:10.37,2013-01-23 07:49:00,
2013-01-22 23:54:00,46.3,39.5,30.06,ENE,75,2.3,2.3,77,0.00,CLR,,0.00,WeatherDisplay:10.37,2013-01-23 07:54:00,
2013-01-22 23:59:00,46.5,39.7,30.05,ENE,74,0.0,0.0,77,0.00,CLR,,0.00,WeatherDisplay:10.37,2013-01-23 07:59:00,